Skip Page Navigation
NASA JPL Caltech
NASA Logo - Jet Propulsion Laboratory + View the NASA Portal
+ Center for Near-Earth Object Studies
JPL Home Earth Solar System Stars & Galaxies Technology
JPL Solar System Dynamics
BODIES ORBITS EPHEMERIDES TOOLS PHYSICAL DATA DISCOVERY FAQ SITE MAP
JPL Small-Body Database Browser
Search: [ help ]  
259162 (2002 YG6)
Classification: Main-belt Asteroid          SPK-ID: 2259162
Ephemeris | Orbit Diagram | Orbital Elements | Mission Design | Physical Parameters | Discovery Circumstances ]

[ show orbit diagram ]
Orbital Elements at Epoch 2459000.5 (2020-May-31.0) TDB
Reference: JPL 17 (heliocentric ecliptic J2000)
 Element Value Uncertainty (1-sigma)   Units 
e .1811721473841841 8.3499e-08  
a 2.531002331508353 1.5966e-08 au
q 2.072455204074608 2.1068e-07 au
i 12.32857621153531 7.7297e-06 deg
node 93.5481279837943 2.4441e-05 deg
peri 327.3073443510997 2.8237e-05 deg
M 141.5292365685492 1.4124e-05 deg
tp 2458422.296244739151
(2018-Oct-30.79624474)
5.5548e-05 TDB
period 1470.7445397198
4.03
1.3916e-05
3.81e-08
d
yr
n .2447739837052774 2.3161e-09 deg/d
Q 2.989549458942097 1.8858e-08 au
  Orbit Determination Parameters
   # obs. used (total)      342  
   data-arc span      9305 days (25.48 yr)  
   first obs. used      1994-11-29  
   last obs. used      2020-05-21  
   planetary ephem.      DE431  
   SB-pert. ephem.      SB431-N16  
   condition code      0  
   norm. resid. RMS      .49178  
   source      ORB  
   producer      Otto Matic  
   solution date      2020-Nov-11 23:12:00  

Additional Information
 Earth MOID = 1.09682 au 
 Jupiter MOID = 2.3389 au 
 T_jup = 3.396 
[ show covariance matrix ]

Ephemeris | Orbit Diagram | Orbital Elements | Mission Design | Physical Parameters | Discovery Circumstances ]

Physical Parameter Table
Parameter Symbol Value Units Sigma Reference Notes
absolute magnitude H 16.3   n/a MPO454930  

259162 (2002 YG6)          Discovered 2002-Dec-28 by Needville at Needville
Reference: 20110119/Numbers.arcLast Updated: 2011-01-25

Alternate Designations
 2002 YG6 = 1994 WV9 
Ephemeris | Orbit Diagram | Orbital Elements | Mission Design | Physical Parameters | Discovery Circumstances ]
ABOUT SSD CREDITS/AWARDS PRIVACY/COPYRIGHT GLOSSARY LINKS
FirstGov 2021-Jan-22 04:54 UT
(server date/time)  
NASA Home Page
Site Manager:   Ryan S. Park
Webmaster  Alan B. Chamberlin